FW0669 Lakeland FL US current weather conditions

sailwx.info

Wind from 146 at 5 knots gusting 8

Air temperature 29.4° C
Dewpoint 26.8° C

Last reported at 2020-Aug-13 14:08 UTC.
Time now 2020-Aug-13 14:44 UTC

Location: N 28°00' W 081°56'.
View on Google Maps.

See reports from other nearby stations

  
Tides and Currents Weather Stations Pressure Air Temp Water Temp Dewpoint Dewpoint Depression Visibility Wind Speed Wind Dir Waves Ship Positions
date/time (UTC)wind fromknots sea level pressurealtimeterstation pressurevisibilityair tempwater tempwave heightnotes
2020-Aug-13 14:08 146 5 gusting 8 29.4
2020-Aug-13 14:03 209 2 gusting 9 28.9
2020-Aug-13 13:58 158 4 gusting 9 28.9
2020-Aug-13 13:53 201 4 gusting 6 28.9
2020-Aug-13 13:48 157 2 gusting 6 28.3
2020-Aug-13 13:43 161 2 gusting 8 28.3
2020-Aug-13 13:38 140 4 gusting 7 28.3
2020-Aug-13 13:33 158 4 gusting 6 28.3
2020-Aug-13 13:28 145 2 gusting 6 28.3
2020-Aug-13 13:23 129 2 gusting 6 28.3
2020-Aug-13 13:18 178 3 gusting 7 28.3
2020-Aug-13 13:13 170 2 gusting 6 28.3
2020-Aug-13 13:08 178 2 gusting 7 28.3
2020-Aug-13 13:03 131 3 gusting 7 27.8
2020-Aug-13 12:58 171 4 gusting 6 27.8
2020-Aug-13 12:53 138 2 gusting 6 27.8
2020-Aug-13 12:48 124 2 gusting 6 27.2
2020-Aug-13 12:43 135 1 gusting 6 27.2
2020-Aug-13 12:38 151 2 gusting 6 27.2
2020-Aug-13 12:33 137 3 gusting 6 27.2
2020-Aug-13 12:28 157 1 gusting 4 27.2
2020-Aug-13 12:23 159 1 gusting 5 27.2
2020-Aug-13 12:18 148 1 gusting 5 26.7
2020-Aug-13 12:13 197 1 gusting 4 26.7
2020-Aug-13 12:08 152 0 gusting 3 26.1
2020-Aug-13 12:03 161 0 gusting 2 26.1
2020-Aug-13 11:58 135 0 gusting 2 26.1
2020-Aug-13 11:53 072 1 gusting 2 25.6
2020-Aug-13 11:48 135 0 gusting 1 25.6
2020-Aug-13 11:43 089 0 gusting 1 25.6
2020-Aug-13 11:38 117 0 gusting 1 25.0
2020-Aug-13 11:33 197 25.0
2020-Aug-13 11:28 046 0 gusting 2 25.0
2020-Aug-13 11:23 117 0 gusting 2 25.0
2020-Aug-13 11:18 148 0 gusting 1 25.0
2020-Aug-13 11:13 046 0 gusting 1 25.0
2020-Aug-13 11:08 165 1 gusting 1 25.0
2020-Aug-13 11:03 157 0 gusting 1 25.0
2020-Aug-13 10:58 165 0 gusting 1 25.0
2020-Aug-13 10:53 169 0 gusting 1 25.0
2020-Aug-13 10:48 117 25.0
2020-Aug-13 10:43 152 25.0
2020-Aug-13 10:38 178 25.0
2020-Aug-13 10:33 135 0 gusting 2 25.0
2020-Aug-13 10:28 108 0 gusting 1 25.0
2020-Aug-13 10:23 152 0 gusting 1 25.0
2020-Aug-13 10:18 145 0 gusting 1 25.0
2020-Aug-13 10:13 089 0 gusting 1 25.0
2020-Aug-13 10:08 178 0 gusting 1 25.0
2020-Aug-13 10:03 206 0 gusting 1 25.0
2020-Aug-13 09:58 178 0 gusting 0 25.0
2020-Aug-13 09:53 178 25.0
2020-Aug-13 09:48 135 0 gusting 1 25.0
2020-Aug-13 09:43 145 0 gusting 1 25.0
2020-Aug-13 09:38 135 25.0
2020-Aug-13 09:33 089 25.0
2020-Aug-13 09:28 152 25.0
2020-Aug-13 09:23 178 25.0
2020-Aug-13 09:18 089 0 gusting 1 25.0
2020-Aug-13 09:13 046 0 gusting 1 25.0
2020-Aug-13 09:08 028 0 gusting 1 25.0
2020-Aug-13 09:03 089 25.0
2020-Aug-13 08:58 089 25.0
2020-Aug-13 08:53 001 0 gusting 2 25.0
2020-Aug-13 08:48 046 0 gusting 3 25.0
2020-Aug-13 08:43 059 1 gusting 3 25.0
2020-Aug-13 08:38 051 0 gusting 1 25.0
2020-Aug-13 08:33 015 0 gusting 1 25.0
2020-Aug-13 08:28 046 0 gusting 1 25.0
2020-Aug-13 08:23 001 25.0
2020-Aug-13 08:18 046 25.0
2020-Aug-13 08:13 152 25.0
2020-Aug-13 08:08 089 0 gusting 2 25.0
2020-Aug-13 08:03 001 0 gusting 2 25.0
2020-Aug-13 07:58 347 0 gusting 2 25.0
2020-Aug-13 07:53 001 0 gusting 2 25.0
2020-Aug-13 07:48 035 0 gusting 1 25.0
2020-Aug-13 07:43 035 0 gusting 2 25.0
2020-Aug-13 07:38 056 0 gusting 2 25.0
2020-Aug-13 07:33 117 25.0
2020-Aug-13 07:28 023 0 gusting 1 25.0
2020-Aug-13 07:23 076 0 gusting 1 24.4
2020-Aug-13 07:18 001 24.4
2020-Aug-13 07:13 001 24.4
2020-Aug-13 07:08 347 0 gusting 1 24.4
2020-Aug-13 07:03 001 0 gusting 1 25.0
2020-Aug-13 06:58 331 25.0
2020-Aug-13 06:53 089 0 gusting 2 25.0
2020-Aug-13 06:48 108 0 gusting 2 25.0
2020-Aug-13 06:43 124 0 gusting 1 24.4
2020-Aug-13 06:38 117 0 gusting 1 24.4
2020-Aug-13 06:33 127 0 gusting 1 24.4
2020-Aug-13 06:28 178 24.4
2020-Aug-13 06:23 178 24.4
2020-Aug-13 06:18 135 24.4
2020-Aug-13 06:13 046 24.4
2020-Aug-13 06:08 269 24.4
2020-Aug-13 06:03 165 0 gusting 1 24.4
2020-Aug-13 05:58 124 0 gusting 1 24.4
2020-Aug-13 05:53 145 0 gusting 1 24.4
2020-Aug-13 05:48 127 0 gusting 1 24.4
2020-Aug-13 05:43 161 0 gusting 1 24.4
2020-Aug-13 05:38 001 24.4
2020-Aug-13 05:33 178 24.4
2020-Aug-13 05:28 135 0 gusting 1 24.4
2020-Aug-13 05:23 117 0 gusting 1 24.4
2020-Aug-13 05:18 117 24.4
2020-Aug-13 05:13 178 0 gusting 0 24.4
2020-Aug-13 05:08 089 24.4
2020-Aug-13 05:03 286 24.4
2020-Aug-13 04:58 046 24.4
2020-Aug-13 04:53 089 0 gusting 1 24.4
2020-Aug-13 04:48 089 24.4
2020-Aug-13 04:43 135 24.4
2020-Aug-13 04:38 324 0 gusting 1 24.4
2020-Aug-13 04:33 046 24.4
2020-Aug-13 04:28 028 0 gusting 2 24.4
2020-Aug-13 04:23 001 0 gusting 2 24.4
2020-Aug-13 04:18 001 0 gusting 2 23.9
2020-Aug-13 04:13 083 1 gusting 2 23.9
2020-Aug-13 04:08 089 1 gusting 2 24.4
2020-Aug-13 04:03 135 23.9
2020-Aug-13 03:58 117 0 gusting 1 23.9
2020-Aug-13 03:53 206 0 gusting 2 24.4
2020-Aug-13 03:48 117 0 gusting 2 24.4
2020-Aug-13 03:43 135 0 gusting 2 24.4
2020-Aug-13 03:38 124 0 gusting 2 24.4
2020-Aug-13 03:33 089 0 gusting 1 24.4
2020-Aug-13 03:28 117 24.4
2020-Aug-13 03:23 135 24.4
2020-Aug-13 03:18 135 0 gusting 2 24.4
2020-Aug-13 03:13 178 1 gusting 2 24.4
2020-Aug-13 03:08 152 0 gusting 2 24.4
2020-Aug-13 03:03 152 1 gusting 3 24.4
2020-Aug-13 02:58 167 1 gusting 3 24.4
2020-Aug-13 02:53 165 1 gusting 3 24.4
2020-Aug-13 02:48 206 0 gusting 2 24.4
2020-Aug-13 02:43 286 0 gusting 2 24.4
2020-Aug-13 02:38 314 0 gusting 1 24.4
2020-Aug-13 02:33 269 23.9
2020-Aug-13 02:28 349 0 gusting 1 23.9
2020-Aug-13 02:23 321 23.9
2020-Aug-13 02:18 161 0 gusting 2 23.9
2020-Aug-13 02:13 178 0 gusting 2 23.9
2020-Aug-13 02:08 223 0 gusting 2 23.9
2020-Aug-13 02:03 206 0 gusting 2 23.9
2020-Aug-13 01:58 223 0 gusting 2 23.9
2020-Aug-13 01:53 223 1 gusting 2 23.9
2020-Aug-13 01:48 213 1 gusting 2 23.9
2020-Aug-13 01:43 210 1 gusting 2 23.9
2020-Aug-13 01:38 206 1 gusting 2 23.9
2020-Aug-13 01:33 148 0 gusting 1 23.9
2020-Aug-13 01:28 124 0 gusting 1 23.9
2020-Aug-13 01:23 117 0 gusting 1 23.9
2020-Aug-13 01:18 152 0 gusting 1 23.9
2020-Aug-13 01:13 124 0 gusting 1 23.9
2020-Aug-13 01:08 122 0 gusting 2 23.9
2020-Aug-13 01:03 149 0 gusting 1 23.9
2020-Aug-13 00:58 178 0 gusting 2 23.9
2020-Aug-13 00:53 108 0 gusting 3 23.9
2020-Aug-13 00:48 122 1 gusting 3 23.9
2020-Aug-13 00:43 143 1 gusting 4 23.9
2020-Aug-13 00:38 105 1 gusting 4 23.9
2020-Aug-13 00:33 135 1 gusting 5 23.9
2020-Aug-13 00:28 148 2 gusting 6 23.9
2020-Aug-13 00:23 148 1 gusting 6 24.4
2020-Aug-13 00:18 127 0 gusting 3 24.4
2020-Aug-13 00:13 135 0 gusting 2 24.4
2020-Aug-13 00:08 130 1 gusting 2 23.9
2020-Aug-13 00:03 161 0 gusting 1 23.9
2020-Aug-12 23:58 314 0 gusting 3 23.9
2020-Aug-12 23:53 269 1 gusting 3 23.9
2020-Aug-12 23:48 028 1 gusting 3 23.9
2020-Aug-12 23:43 001 0 gusting 2 23.9
2020-Aug-12 23:38 295 0 gusting 2 23.9
2020-Aug-12 23:33 001 1 gusting 4 23.9
2020-Aug-12 23:28 274 2 gusting 3 23.9
2020-Aug-12 23:23 286 1 gusting 4 23.9
2020-Aug-12 23:18 231 2 gusting 6 23.9
2020-Aug-12 23:13 283 3 gusting 8 23.9
2020-Aug-12 23:08 255 3 gusting 10 23.9
2020-Aug-12 23:03 248 6 gusting 10 24.4
2020-Aug-12 22:58 265 5 gusting 10 24.4
2020-Aug-12 22:53 240 5 gusting 10 24.4
2020-Aug-12 22:48 253 6 gusting 10 24.4
2020-Aug-12 22:43 236 6 gusting 13 24.4
2020-Aug-12 22:38 238 6 gusting 9 24.4
2020-Aug-12 22:33 219 2 gusting 6 24.4
2020-Aug-12 22:28 152 3 gusting 6 23.9
2020-Aug-12 22:23 135 1 gusting 6 23.9
2020-Aug-12 22:18 138 2 gusting 6 23.9
2020-Aug-12 22:13 083 2 gusting 5 23.9
2020-Aug-12 22:08 089 2 gusting 12 23.9
2020-Aug-12 22:03 108 4 gusting 12 23.9
2020-Aug-12 21:58 082 2 gusting 8 23.9
2020-Aug-12 21:53 141 3 gusting 10 23.9
2020-Aug-12 21:48 103 4 gusting 15 23.9
2020-Aug-12 21:43 143 6 gusting 15 24.4
2020-Aug-12 21:38 352 3 gusting 12 24.4
2020-Aug-12 21:33 037 6 gusting 13 24.4
2020-Aug-12 21:28 108 5 gusting 13 24.4
2020-Aug-12 21:23 128 6 gusting 13 24.4
2020-Aug-12 21:18 132 6 gusting 26 24.4
2020-Aug-12 21:13 033 13 gusting 39 25.6
2020-Aug-12 21:08 103 21 gusting 39 28.3
2020-Aug-12 21:03 046 6 gusting 17 30.6
2020-Aug-12 20:58 107 4 gusting 17 31.7
2020-Aug-12 20:53 033 5 gusting 8 32.2
2020-Aug-12 20:48 023 2 gusting 5 32.8
2020-Aug-12 20:43 049 0 gusting 4 32.8
2020-Aug-12 20:38 065 2 gusting 5 32.8
2020-Aug-12 20:33 068 2 gusting 5 32.8
2020-Aug-12 20:28 063 1 gusting 5 32.8
2020-Aug-12 20:23 052 1 gusting 4 32.8
2020-Aug-12 20:18 089 1 gusting 4 32.8
2020-Aug-12 20:13 039 1 gusting 3 33.3
2020-Aug-12 20:08 117 1 gusting 3 33.3
2020-Aug-12 20:03 124 0 gusting 3 33.3
2020-Aug-12 19:58 020 1 gusting 3 33.3
2020-Aug-12 19:53 001 1 gusting 4 33.3
2020-Aug-12 19:48 324 2 gusting 4 33.3
2020-Aug-12 19:43 076 1 gusting 3 32.8
2020-Aug-12 19:38 053 1 gusting 4 33.3
2020-Aug-12 19:33 072 1 gusting 4 33.9
2020-Aug-12 19:28 113 1 gusting 2 33.9
2020-Aug-12 19:23 046 0 gusting 3 33.3
2020-Aug-12 19:18 068 0 gusting 5 33.3
2020-Aug-12 19:13 046 2 gusting 5 33.3
2020-Aug-12 19:08 089 3 gusting 5 33.9
2020-Aug-12 19:03 072 2 gusting 4 33.9
2020-Aug-12 18:58 089 0 gusting 5 33.3
2020-Aug-12 18:53 114 2 gusting 5 32.8
2020-Aug-12 18:48 067 1 gusting 3 33.3
2020-Aug-12 18:43 046 0 gusting 3 33.3
2020-Aug-12 18:38 089 0 gusting 3 32.8
2020-Aug-12 18:33 033 2 gusting 5 32.8
2020-Aug-12 18:28 074 2 gusting 5 32.8
2020-Aug-12 18:23 326 2 gusting 4 33.3
2020-Aug-12 18:18 032 2 gusting 4 32.8
2020-Aug-12 18:13 070 1 gusting 4 32.2
2020-Aug-12 18:08 220 1 gusting 3 32.2
2020-Aug-12 18:03 089 0 gusting 4 32.2
2020-Aug-12 17:58 113 2 gusting 4 32.2
2020-Aug-12 17:53 067 2 gusting 4 32.8
2020-Aug-12 17:48 233 2 gusting 5 32.8
2020-Aug-12 17:43 202 2 gusting 5 32.2
2020-Aug-12 17:38 269 1 gusting 4 32.8
2020-Aug-12 17:33 001 1 gusting 3 32.2
2020-Aug-12 17:28 051 1 gusting 4 32.2
2020-Aug-12 17:23 331 1 gusting 7 32.2
2020-Aug-12 17:18 135 1 gusting 7 31.7
2020-Aug-12 17:13 152 2 gusting 5 32.2
2020-Aug-12 17:08 218 3 gusting 6 32.2
2020-Aug-12 17:03 028 0 gusting 6 32.2
2020-Aug-12 16:58 129 2 gusting 6 31.7
2020-Aug-12 16:53 105 3 gusting 6 32.2
2020-Aug-12 16:48 105 0 gusting 5 32.2
2020-Aug-12 16:43 100 2 gusting 5 31.1
2020-Aug-12 16:38 089 2 gusting 6 31.1
2020-Aug-12 16:33 108 3 gusting 6 31.1
2020-Aug-12 16:28 096 1 gusting 6 31.1
2020-Aug-12 16:23 120 2 gusting 4 31.1
2020-Aug-12 16:18 056 1 gusting 6 31.1
2020-Aug-12 16:13 046 2 gusting 6 31.1
2020-Aug-12 16:08 001 0 gusting 4 30.6
2020-Aug-12 16:03 061 2 gusting 5 30.6
2020-Aug-12 15:58 098 2 gusting 5 30.6
2020-Aug-12 15:53 039 1 gusting 3 30.6
2020-Aug-12 15:48 015 0 gusting 3 30.6
2020-Aug-12 15:43 032 1 gusting 3 30.6
2020-Aug-12 15:38 049 0 gusting 4 30.0
2020-Aug-12 15:28 114 2 gusting 4 30.0
2020-Aug-12 15:23 089 0 gusting 2 30.0
2020-Aug-12 15:18 046 1 gusting 3 29.4
2020-Aug-12 15:13 063 0 gusting 3 29.4
2020-Aug-12 15:08 152 29.4
2020-Aug-12 15:03 081 0 gusting 3 29.4
2020-Aug-12 14:58 324 1 gusting 3 28.9
2020-Aug-12 14:53 046 0 gusting 2 28.9
2020-Aug-12 14:48 063 1 gusting 2 28.9
2020-Aug-12 14:43 344 0 gusting 2 28.9
2020-Aug-12 14:38 063 0 gusting 1 28.9
2020-Aug-12 14:33 040 0 gusting 2 28.3
2020-Aug-12 14:28 250 0 gusting 2 28.3
2020-Aug-12 14:23 178 0 gusting 2 28.3
2020-Aug-12 14:18 240 28.3
2020-Aug-12 14:13 124 0 gusting 1 28.3
2020-Aug-12 14:08 135 0 gusting 1 28.3
2020-Aug-12 14:03 178 0 gusting 1 27.8
2020-Aug-12 13:58 269 27.8
2020-Aug-12 13:53 135 0 gusting 2 27.8
2020-Aug-12 13:48 117 0 gusting 2 27.8
2020-Aug-12 13:43 063 0 gusting 3 27.2
2020-Aug-12 13:38 140 0 gusting 3 27.2
2020-Aug-12 13:33 063 0 gusting 2 27.2
2020-Aug-12 13:28 178 0 gusting 2 26.7
2020-Aug-12 13:23 178 0 gusting 2 26.7
2020-Aug-12 13:18 046 1 gusting 2 26.7
2020-Aug-12 13:13 046 1 gusting 2 26.1
2020-Aug-12 13:08 102 1 gusting 2 26.1
2020-Aug-12 13:03 108 0 gusting 2 25.6
2020-Aug-12 12:58 178 0 gusting 2 25.6
2020-Aug-12 12:53 081 0 gusting 2 25.0
2020-Aug-12 12:48 105 0 gusting 1 25.0
2020-Aug-12 12:43 108 0 gusting 1 24.4
2020-Aug-12 12:38 124 0 gusting 1 24.4
2020-Aug-12 12:33 145 0 gusting 1 24.4
2020-Aug-12 12:28 063 24.4
2020-Aug-12 12:23 117 0 gusting 1 24.4
2020-Aug-12 12:18 108 0 gusting 2 24.4
2020-Aug-12 12:13 089 0 gusting 1 24.4
2020-Aug-12 12:08 001 0 gusting 1 24.4
2020-Aug-12 12:03 135 0 gusting 1 24.4
2020-Aug-12 11:58 161 0 gusting 1 23.9
2020-Aug-12 11:53 001 23.9
2020-Aug-12 11:48 178 23.9
2020-Aug-12 11:43 089 0 gusting 1 23.9
2020-Aug-12 11:38 240 0 gusting 1 23.9
2020-Aug-12 11:33 314 23.3
2020-Aug-12 11:28 046 0 gusting 1 23.3
2020-Aug-12 11:23 152 0 gusting 1 23.3
2020-Aug-12 11:18 145 0 gusting 1 23.3
2020-Aug-12 11:13 152 0 gusting 1 23.3
2020-Aug-12 11:03 142 0 gusting 1 23.3
2020-Aug-12 10:58 142 1 gusting 1 23.3
2020-Aug-12 10:53 167 0 gusting 1 23.3
2020-Aug-12 10:48 193 23.3
2020-Aug-12 10:43 046 23.3
2020-Aug-12 10:38 216 0 gusting 1 23.3
2020-Aug-12 10:33 178 23.3
2020-Aug-12 10:28 178 0 gusting 0 23.3
2020-Aug-12 10:23 178 23.3
2020-Aug-12 10:18 223 0 gusting 1 23.3
2020-Aug-12 10:13 178 23.3
2020-Aug-12 10:08 314 0 gusting 0 23.3
2020-Aug-12 10:03 046 23.3
2020-Aug-12 09:58 269 0 gusting 1 23.3
2020-Aug-12 09:53 250 0 gusting 1 23.3
2020-Aug-12 09:48 269 0 gusting 1 23.3
2020-Aug-12 09:43 001 23.3
2020-Aug-12 09:38 028 23.3
2020-Aug-12 09:33 269 0 gusting 1 23.3
2020-Aug-12 09:28 240 0 gusting 1 23.9
2020-Aug-12 09:23 152 23.9
2020-Aug-12 09:18 124 0 gusting 1 23.9
2020-Aug-12 09:13 223 23.9
2020-Aug-12 09:08 331 23.9
2020-Aug-12 09:03 331 23.9
2020-Aug-12 08:58 302 23.9
2020-Aug-12 08:53 028 23.9
2020-Aug-12 08:48 314 23.9
2020-Aug-12 08:43 089 23.9
2020-Aug-12 08:38 206 0 gusting 1 23.9
2020-Aug-12 08:33 269 0 gusting 1 23.9
2020-Aug-12 08:28 089 23.9
2020-Aug-12 08:23 314 0 gusting 1 23.9
2020-Aug-12 08:18 213 0 gusting 1 23.9
2020-Aug-12 08:13 178 0 gusting 2 23.9
2020-Aug-12 08:08 245 1 gusting 2 23.9
2020-Aug-12 08:03 223 1 gusting 2 23.9
2020-Aug-12 07:58 223 1 gusting 2 23.9
2020-Aug-12 07:53 233 1 gusting 1 23.9
2020-Aug-12 07:48 223 0 gusting 1 23.9
2020-Aug-12 07:43 152 0 gusting 1 23.9
2020-Aug-12 07:38 135 23.9
2020-Aug-12 07:33 089 0 gusting 1 23.9
2020-Aug-12 07:28 152 0 gusting 1 23.9
2020-Aug-12 07:23 152 0 gusting 1 23.9
2020-Aug-12 07:18 152 23.9
2020-Aug-12 07:13 269 0 gusting 0 23.9
2020-Aug-12 07:08 001 23.9
2020-Aug-12 07:03 117 0 gusting 1 23.9
2020-Aug-12 06:58 178 0 gusting 1 23.9
2020-Aug-12 06:53 223 0 gusting 0 23.9
2020-Aug-12 06:48 161 0 gusting 2 23.9
2020-Aug-12 06:43 223 0 gusting 2 23.9
2020-Aug-12 06:38 234 0 gusting 2 23.9
2020-Aug-12 06:33 117 1 gusting 2 23.9
2020-Aug-12 06:28 152 1 gusting 1 23.9
2020-Aug-12 06:23 152 0 gusting 1 23.9
2020-Aug-12 06:18 223 23.9
2020-Aug-12 06:13 269 23.9
2020-Aug-12 06:08 178 0 gusting 1 23.9
2020-Aug-12 06:03 089 0 gusting 1 23.9
2020-Aug-12 05:58 135 23.9
2020-Aug-12 05:53 089 0 gusting 1 23.9
2020-Aug-12 05:48 117 23.9
2020-Aug-12 05:43 223 0 gusting 1 23.9
2020-Aug-12 05:38 135 0 gusting 2 23.9
2020-Aug-12 05:33 152 0 gusting 2 23.9
2020-Aug-12 05:28 156 0 gusting 2 24.4
2020-Aug-12 05:23 152 1 gusting 2 24.4
2020-Aug-12 05:18 163 1 gusting 2 24.4
2020-Aug-12 05:13 159 1 gusting 2 24.4
2020-Aug-12 05:08 156 1 gusting 2 24.4
2020-Aug-12 05:03 147 1 gusting 2 24.4
2020-Aug-12 04:58 178 24.4
2020-Aug-12 04:53 178 0 gusting 1 24.4
2020-Aug-12 04:48 223 0 gusting 1 24.4
2020-Aug-12 04:43 269 1 gusting 1 24.4
2020-Aug-12 04:38 314 0 gusting 2 24.4
2020-Aug-12 04:33 286 0 gusting 2 24.4
2020-Aug-12 04:28 228 1 gusting 2 24.4
2020-Aug-12 04:23 210 1 gusting 1 24.4
2020-Aug-12 04:18 234 1 gusting 1 23.9
2020-Aug-12 04:13 223 0 gusting 1 23.9
2020-Aug-12 04:08 213 0 gusting 2 24.4
2020-Aug-12 04:03 168 0 gusting 2 23.9
2020-Aug-12 03:58 157 0 gusting 2 24.4
2020-Aug-12 02:23 135 1 gusting 3 24.4
2020-Aug-12 02:18 117 0 gusting 2 24.4
2020-Aug-12 02:13 163 1 gusting 2 24.4
2020-Aug-12 02:08 223 24.4
2020-Aug-12 02:03 314 24.4
2020-Aug-12 01:58 250 0 gusting 2 24.4
2020-Aug-12 01:53 063 0 gusting 2 24.4
2020-Aug-12 01:48 089 0 gusting 3 24.4
2020-Aug-12 01:43 107 1 gusting 3 24.4
2020-Aug-12 01:38 089 0 gusting 2 24.4
2020-Aug-12 01:33 152 1 gusting 2 24.4
2020-Aug-12 01:28 152 1 gusting 3 24.4
2020-Aug-12 01:23 223 1 gusting 3 24.4
2020-Aug-12 01:18 148 1 gusting 3 24.4
2020-Aug-12 01:13 152 0 gusting 2 24.4
2020-Aug-12 01:08 124 1 gusting 2 24.4
2020-Aug-12 01:03 145 0 gusting 2 24.4
2020-Aug-12 00:58 258 1 gusting 2 24.4
2020-Aug-12 00:53 240 1 gusting 2 24.4
2020-Aug-12 00:48 269 25.0
2020-Aug-12 00:43 135 0 gusting 3 25.0
2020-Aug-12 00:38 135 0 gusting 2 24.4
2020-Aug-12 00:33 210 1 gusting 3 24.4
2020-Aug-12 00:28 274 2 gusting 3 24.4
2020-Aug-12 00:23 248 0 gusting 2 24.4
2020-Aug-12 00:18 314 24.4
2020-Aug-12 00:13 161 1 gusting 2 25.0
2020-Aug-12 00:08 142 0 gusting 1 25.0
2020-Aug-12 00:03 124 0 gusting 3 25.0
2020-Aug-11 23:58 231 1 gusting 3 25.0
2020-Aug-11 23:53 213 1 gusting 3 25.0
2020-Aug-11 23:48 274 1 gusting 4 24.4
2020-Aug-11 23:43 253 1 gusting 4 24.4
2020-Aug-11 23:38 039 0 gusting 3 24.4
2020-Aug-11 23:33 314 0 gusting 5 24.4
2020-Aug-11 23:28 217 3 gusting 5 25.0
2020-Aug-11 23:23 217 2 gusting 3 25.0
2020-Aug-11 23:18 240 25.0
2020-Aug-11 23:13 286 0 gusting 1 25.0
2020-Aug-11 23:08 223 25.0
2020-Aug-11 23:03 152 0 gusting 1 24.4
2020-Aug-11 22:58 157 25.0
2020-Aug-11 22:53 161 0 gusting 4 25.0
2020-Aug-11 22:48 161 1 gusting 6 25.0
2020-Aug-11 22:43 152 2 gusting 6 25.0
2020-Aug-11 22:38 093 2 gusting 6 25.0
2020-Aug-11 22:33 142 1 gusting 6 25.0
2020-Aug-11 22:28 154 3 gusting 6 25.0
2020-Aug-11 22:23 117 2 gusting 6 25.0
2020-Aug-11 22:18 105 2 gusting 9 25.0
2020-Aug-11 22:13 096 4 gusting 9 25.6
2020-Aug-11 22:03 157 1 gusting 4 25.0
2020-Aug-11 21:58 178 1 gusting 4 25.0
2020-Aug-11 21:53 161 1 gusting 6 25.0
2020-Aug-11 21:48 117 1 gusting 6 25.0
2020-Aug-11 21:43 147 2 gusting 5 25.0
2020-Aug-11 21:38 155 2 gusting 9 25.0
2020-Aug-11 21:33 190 3 gusting 11 25.0
2020-Aug-11 21:28 215 6 gusting 11 25.0
2020-Aug-11 21:23 223 1 gusting 4 24.4
2020-Aug-11 21:18 269 1 gusting 3 24.4
2020-Aug-11 21:13 216 1 gusting 5 24.4
2020-Aug-11 21:08 193 2 gusting 5 24.4
2020-Aug-11 21:03 226 2 gusting 4 24.4
2020-Aug-11 20:58 135 1 gusting 10 24.4
2020-Aug-11 20:53 152 3 gusting 13 23.9
2020-Aug-11 20:48 173 6 gusting 13 23.9
2020-Aug-11 20:43 105 3 gusting 7 24.4
2020-Aug-11 20:38 121 3 gusting 21 25.0
2020-Aug-11 20:33 133 8 gusting 21 26.1
2020-Aug-11 20:28 157 3 gusting 8 28.3
2020-Aug-11 20:23 135 2 gusting 11 28.3
2020-Aug-11 20:18 040 1 gusting 11 28.9
2020-Aug-11 20:13 248 5 gusting 10 30.6
2020-Aug-11 20:08 124 4 gusting 6 31.7
2020-Aug-11 19:58 015 5 gusting 8 32.2
2020-Aug-11 19:53 030 3 gusting 13 32.2
2020-Aug-11 19:48 044 6 gusting 13 32.2
2020-Aug-11 19:43 039 3 gusting 13 32.2
2020-Aug-11 19:38 004 5 gusting 10 32.8
2020-Aug-11 19:33 334 4 gusting 10 32.8
2020-Aug-11 19:28 030 2 gusting 9 32.8
2020-Aug-11 19:23 006 5 gusting 9 33.3
2020-Aug-11 19:18 033 3 gusting 7 33.3
2020-Aug-11 19:13 314 3 gusting 7 33.3
2020-Aug-11 19:08 018 3 gusting 6 33.9
2020-Aug-11 19:03 349 1 gusting 5 33.9
2020-Aug-11 18:58 328 1 gusting 5 34.4
2020-Aug-11 18:53 001 2 gusting 4 35.0
2020-Aug-11 18:48 105 0 gusting 6 34.4
2020-Aug-11 18:43 117 3 gusting 6 33.9
2020-Aug-11 18:38 223 1 gusting 4 33.9
2020-Aug-11 18:33 008 2 gusting 8 33.9
2020-Aug-11 18:28 286 1 gusting 8 33.3
2020-Aug-11 18:23 324 2 gusting 5 33.9
2020-Aug-11 18:18 311 1 gusting 5 33.9
2020-Aug-11 18:13 300 2 gusting 6 33.9
2020-Aug-11 18:08 229 2 gusting 6 33.3
2020-Aug-11 18:03 227 1 gusting 3 33.3
2020-Aug-11 17:58 193 0 gusting 2 32.8
2020-Aug-11 17:53 314 0 gusting 4 32.8
2020-Aug-11 17:48 295 1 gusting 4 32.8
2020-Aug-11 17:43 032 2 gusting 4 32.8
2020-Aug-11 17:38 089 1 gusting 4 32.8
2020-Aug-11 17:33 127 1 gusting 4 33.3
2020-Aug-11 17:28 044 2 gusting 4 33.3
2020-Aug-11 17:23 083 2 gusting 4 33.3
2020-Aug-11 17:18 098 0 gusting 6 32.8
2020-Aug-11 17:13 025 3 gusting 6 32.8
2020-Aug-11 17:08 063 2 gusting 4 32.8
2020-Aug-11 17:03 068 0 gusting 4 32.8
2020-Aug-11 16:58 117 1 gusting 4 32.2
2020-Aug-11 16:53 135 1 gusting 6 32.2
2020-Aug-11 16:48 058 2 gusting 6 32.2
2020-Aug-11 16:43 034 3 gusting 6 32.8
2020-Aug-11 16:38 009 4 gusting 6 32.2
2020-Aug-11 16:33 066 3 gusting 6 32.2
2020-Aug-11 16:28 058 3 gusting 6 32.2
2020-Aug-11 16:23 117 1 gusting 6 32.2
2020-Aug-11 16:18 135 2 gusting 4 32.2
2020-Aug-11 16:13 072 0 gusting 6 32.2
2020-Aug-11 16:08 110 3 gusting 6 32.2
2020-Aug-11 16:03 072 0 gusting 5 32.2
2020-Aug-11 15:58 059 1 gusting 5 32.2
2020-Aug-11 15:53 124 2 gusting 5 32.2
2020-Aug-11 15:48 089 2 gusting 5 32.2
2020-Aug-11 15:43 253 1 gusting 4 31.7
2020-Aug-11 15:38 283 0 gusting 4 31.7
2020-Aug-11 15:33 324 2 gusting 4 31.7
2020-Aug-11 15:28 283 2 gusting 4 31.7
2020-Aug-11 15:23 250 0 gusting 4 31.7
2020-Aug-11 15:18 096 2 gusting 4 31.7
2020-Aug-11 15:13 255 1 gusting 4 31.7
2020-Aug-11 15:08 053 0 gusting 3 31.7
2020-Aug-11 15:03 072 1 gusting 4 31.1
2020-Aug-11 14:58 076 2 gusting 4 31.1
2020-Aug-11 14:53 063 1 gusting 3 30.6
2020-Aug-11 14:48 206 0 gusting 4 30.6
2020-Aug-11 14:43 297 1 gusting 4 30.6
2020-Aug-11 14:38 351 1 gusting 4 30.0
2020-Aug-11 14:33 324 0 gusting 3 30.0
2020-Aug-11 14:28 240 0 gusting 4 30.0
2020-Aug-11 14:23 233 1 gusting 4 30.0
2020-Aug-11 14:18 223 1 gusting 3 30.0
2020-Aug-11 14:13 105 1 gusting 3 30.0
2020-Aug-11 14:08 089 0 gusting 3 29.4
2020-Aug-11 14:03 269 0 gusting 2 30.0